632  
ASUS44 KLZK 240405  
RWRLZK  
 
WEATHER ROUNDUP FOR ARKANSAS  
NATIONAL WEATHER SERVICE LITTLE ROCK AR  
1100 PM CDT SAT SEP 23 2017  
 
NOTE: "FAIR" INDICATES FEW OR NO CLOUDS BELOW 12,000 FEET WITH NO  
SIGNIFICANT WEATHER AND/OR S TO VISIBILITY
.  
 
ARZ001-003-010-029-240500-  
NORTHWEST ARKANSAS  
 
CITY SKY/WX TMP DP RH WIND PRES REMARKS
 
FAYETTEVILLE CLEAR 66 65 96 CALM 29.99S  
FORT SMITH PTCLDY 77 66 68 E5 29.93S  
HARRISON CLEAR 73 64 73 CALM 30.02S  
BENTONVILLE CLEAR 74 65 73 SE7 30.01S  
ROGERS CLEAR 74 67 78 SE6 30.00S  
SILOAM SPGS CLEAR 74 66 76 E6 29.98F  
HIGHFILL CLEAR 72 65 78 CALM 29.99S  

 
 
ARZ004-005-016-240500-  
NORTH CENTRAL ARKANSAS  
 
CITY SKY/WX TMP DP RH WIND PRES REMARKS
 
BATESVILLE CLEAR 73 68 84 CALM 29.99R  
FLIPPIN CLEAR 72 65 78 CALM 30.00S  
MTN HOME CLEAR 76 65 68 CALM 29.99S  

 
 
ARZ040-041-240500-  
WEST CENTRAL ARKANSAS  
 
CITY SKY/WX TMP DP RH WIND PRES REMARKS
 
MENA CLEAR 72 72 100 CALM 29.98S  
MOUNT IDA CLEAR 70 67 90 CALM 29.95S  

 
 
ARZ009-017-025-026-028-240500-  
NORTHEAST ARKANSAS  
 
CITY SKY/WX TMP DP RH WIND PRES REMARKS
 
CORNING FAIR 77 70 78 E5 29.99  
JONESBORO CLEAR 74 70 87 NE5 29.98R  
NEWPORT CLEAR 73 68 84 E3 29.98  
BLYTHEVILLE CLEAR 74 70 87 E7 29.99R  

 
 
ARZ022-023-033-042-044-240500-  
CENTRAL ARKANSAS  
 
CITY SKY/WX TMP DP RH WIND PRES REMARKS
 
LITTLE ROCK CLEAR 75 70 84 NE3 29.96R  
N LITTLE ROCK N/A 79 69 71 E6 29.96S  
JACKSONVILLE CLEAR 73 69 88 CALM 29.96R  
CONWAY N/A 73 68 83 CALM 29.94S  
SEARCY CLEAR 72 71 97 CALM 29.98R  
HOT SPRINGS CLEAR 77 68 73 CALM 29.96R  
RUSSELLVILLE CLEAR 78 67 68 CALM 29.95S  
CLINTON FOG 70 68 94 CALM 29.99S VSB 1/2  

 
 
ARZ036-240500-  
EAST ARKANSAS  
 
CITY SKY/WX TMP DP RH WIND PRES REMARKS
 
WEST MEMPHIS CLEAR 73 72 96 CALM 29.96S  

 
 
ARZ050-053-066-070-073-240500-  
SOUTHWEST ARKANSAS  
 
CITY SKY/WX TMP DP RH WIND PRES REMARKS
 
ARKADELPHIA FAIR 71 69 93 CALM 29.94S  
CAMDEN PTCLDY 72 68 88 CALM 29.93S  
TEXARKANA CLEAR 77 69 76 SE5 29.93S  
EL DORADO CLEAR 74 71 91 CALM 29.94S  
DE QUEEN CLEAR 72 71 97 CALM 29.91S  

 
 
ARZ056-057-069-240500-  
SOUTHEAST ARKANSAS  
 
CITY SKY/WX TMP DP RH WIND PRES REMARKS
 
PINE BLUFF CLEAR 72 68 87 CALM 29.95S  
STUTTGART CLEAR 77 70 79 SE6 29.96R  
MONTICELLO CLEAR 75 70 84 E3 29.96R  
 

 
 
 
 
CLICK HERE TO GO TO PREVIOUS BULLETINS.

The Nexlab AR Page Main Text Page